QTR3M OTHH-OMDB

Flight info

Callsign QTR3M
Flight time N/A
Altitude 19000
Route DATRI L564 BAT DCT KUTNA DCT RIBOT M550 GOLGU DCT UKRAG G783 ASPED Q308 KIPOK DCT IMPED
Aircraft B77W/H-SDE1E2E3FGHIJ2J3J4J5M1RWXY/LB1D1

Departure

Time 2026-05-05 17:32
Airport Hamad International Airport (OTHH)

Arrival

Time N/A
Airport Dubai International Airport (OMDB)
Time Latitude Longitude Altitude Speed Heading
2026-05-05 17:02 25.26093 51.60974 16 ft 0 kts 158°
2026-05-05 17:22 25.26094 51.60974 16 ft 0 kts 158°
2026-05-05 17:23 25.26108 51.60968 16 ft 2 kts 158°
2026-05-05 17:23 25.26122 51.60962 16 ft 2 kts 158°
2026-05-05 17:23 25.26136 51.60956 16 ft 2 kts 165°
2026-05-05 17:24 25.26152 51.60954 16 ft 2 kts 183°
2026-05-05 17:24 25.26167 51.60956 16 ft 2 kts 197°
2026-05-05 17:24 25.26181 51.60963 16 ft 2 kts 211°
2026-05-05 17:24 25.26194 51.60973 16 ft 2 kts 226°
2026-05-05 17:25 25.26203 51.60986 16 ft 2 kts 240°
2026-05-05 17:25 25.26207 51.60994 15 ft 0 kts 247°
2026-05-05 17:25 25.26208 51.60997 15 ft 0 kts 249°
2026-05-05 17:27 25.26207 51.60995 15 ft 0 kts 249°
2026-05-05 17:27 25.26203 51.60983 16 ft 3 kts 249°
2026-05-05 17:28 25.26191 51.60950 16 ft 5 kts 249°
2026-05-05 17:28 25.26172 51.60898 17 ft 9 kts 248°
2026-05-05 17:28 25.26143 51.60816 18 ft 13 kts 248°
2026-05-05 17:28 25.26101 51.60700 18 ft 17 kts 248°
2026-05-05 17:29 25.26021 51.60645 19 ft 14 kts 168°
2026-05-05 17:29 25.25913 51.60686 18 ft 17 kts 158°
2026-05-05 17:29 25.25788 51.60741 18 ft 19 kts 158°
2026-05-05 17:29 25.25679 51.60782 16 ft 15 kts 184°
2026-05-05 17:30 25.25625 51.60735 17 ft 6 kts 243°
2026-05-05 17:30 25.25608 51.60692 17 ft 5 kts 246°
2026-05-05 17:30 25.25594 51.60658 18 ft 4 kts 246°
2026-05-05 17:30 25.25578 51.60611 19 ft 7 kts 255°
2026-05-05 17:31 25.25578 51.60552 20 ft 7 kts 290°
2026-05-05 17:31 25.25579 51.60549 20 ft 0 kts 292°
2026-05-05 17:31 25.25592 51.60528 20 ft 6 kts 314°
2026-05-05 17:31 25.25649 51.60494 22 ft 11 kts 336°
2026-05-05 17:32 25.25836 51.60411 23 ft 61 kts 338°
2026-05-05 17:32 25.26473 51.60131 25 ft 130 kts 339°
2026-05-05 17:32 25.27493 51.59673 152 ft 176 kts 340°
2026-05-05 17:32 25.28713 51.59135 709 ft 191 kts 339°
2026-05-05 17:33 25.29912 51.58592 1769 ft 179 kts 341°
2026-05-05 17:33 25.31104 51.58080 2325 ft 190 kts 341°
2026-05-05 17:33 25.32398 51.57512 2800 ft 206 kts 341°
2026-05-05 17:33 25.33808 51.56888 3322 ft 222 kts 341°
2026-05-05 17:34 25.35334 51.56213 3845 ft 238 kts 340°
2026-05-05 17:34 25.37014 51.55578 3974 ft 255 kts 353°
2026-05-05 17:34 25.38865 51.55793 3971 ft 258 kts 22°
2026-05-05 17:34 25.40339 51.56975 3970 ft 261 kts 50°
2026-05-05 17:35 25.41124 51.58870 3976 ft 269 kts 79°
2026-05-05 17:35 25.40928 51.61023 4411 ft 285 kts 110°
2026-05-05 17:35 25.39776 51.62837 5466 ft 285 kts 138°
2026-05-05 17:35 25.38049 51.64074 6109 ft 299 kts 152°
2026-05-05 17:36 25.36085 51.65208 6677 ft 316 kts 153°
2026-05-05 17:36 25.34026 51.66378 7519 ft 322 kts 153°
2026-05-05 17:36 25.31984 51.67538 8356 ft 326 kts 153°
2026-05-05 17:36 25.29912 51.68715 9078 ft 334 kts 153°
2026-05-05 17:37 25.27742 51.69944 9906 ft 338 kts 154°
2026-05-05 17:37 25.26246 51.70574 10459 ft 340 kts 167°
2026-05-05 17:37 25.23027 51.70616 11523 ft 343 kts 193°
2026-05-05 17:37 25.20589 51.70013 12439 ft 344 kts 195°
2026-05-05 17:38 25.18173 51.69371 13296 ft 347 kts 195°
2026-05-05 17:38 25.15766 51.68729 14089 ft 350 kts 195°
2026-05-05 17:38 25.13364 51.68089 14873 ft 353 kts 195°
2026-05-05 17:38 25.10890 51.67430 15661 ft 355 kts 195°
2026-05-05 17:39 25.08361 51.66757 16430 ft 358 kts 194°
2026-05-05 17:39 25.05923 51.66108 17162 ft 360 kts 194°
2026-05-05 17:39 25.03453 51.65451 17693 ft 364 kts 194°
2026-05-05 17:39 25.00871 51.64764 17783 ft 365 kts 194°
2026-05-05 17:40 24.98280 51.64076 17789 ft 364 kts 194°
2026-05-05 17:40 24.95693 51.63388 17780 ft 365 kts 194°
2026-05-05 17:40 24.93141 51.62711 17779 ft 365 kts 194°
2026-05-05 17:40 24.90567 51.62028 17774 ft 364 kts 194°
2026-05-05 17:41 24.88000 51.61347 17782 ft 365 kts 194°
2026-05-05 17:41 24.85414 51.60661 17786 ft 365 kts 194°
2026-05-05 17:41 24.82859 51.59984 17771 ft 364 kts 194°
2026-05-05 17:41 24.80264 51.59296 17771 ft 365 kts 194°
2026-05-05 17:42 24.77681 51.58612 17780 ft 365 kts 194°
2026-05-05 17:42 24.75095 51.57928 17773 ft 365 kts 194°
2026-05-05 17:42 24.72494 51.57240 17773 ft 365 kts 194°
2026-05-05 17:42 24.69916 51.56566 17773 ft 366 kts 193°
2026-05-05 17:43 24.67310 51.55951 17778 ft 366 kts 193°
2026-05-05 17:43 24.64735 51.55351 17770 ft 366 kts 193°
2026-05-05 17:43 24.62088 51.54730 17780 ft 366 kts 193°
2026-05-05 17:43 24.59464 51.54114 17758 ft 366 kts 193°
2026-05-05 17:44 24.56854 51.53499 17761 ft 366 kts 193°
2026-05-05 17:44 24.54245 51.52885 17762 ft 367 kts 193°
2026-05-05 17:44 24.51661 51.52275 17769 ft 367 kts 193°
2026-05-05 17:44 24.49084 51.51668 17766 ft 367 kts 193°
2026-05-05 17:45 24.46481 51.51054 17765 ft 367 kts 193°
2026-05-05 17:45 24.43879 51.50441 17764 ft 367 kts 193°
2026-05-05 17:45 24.41224 51.50102 17756 ft 366 kts 178°
2026-05-05 17:45 24.38607 51.50583 17750 ft 358 kts 161°
2026-05-05 17:46 24.36348 51.51882 17763 ft 343 kts 140°
2026-05-05 17:46 24.34759 51.53883 17756 ft 334 kts 116°
2026-05-05 17:46 24.34060 51.56380 17754 ft 329 kts 92°
2026-05-05 17:46 24.34370 51.58937 17756 ft 325 kts 67°
2026-05-05 17:47 24.35636 51.61097 17758 ft 322 kts 42°
2026-05-05 17:47 24.37573 51.62447 17660 ft 317 kts 18°
2026-05-05 17:47 24.39797 51.63000 17340 ft 314 kts
2026-05-05 17:47 24.42038 51.63357 16909 ft 313 kts
2026-05-05 17:48 24.44280 51.63697 16482 ft 312 kts
2026-05-05 17:48 24.46496 51.64034 16113 ft 309 kts
2026-05-05 17:48 24.48735 51.64376 15788 ft 309 kts
2026-05-05 17:48 24.50945 51.64719 15561 ft 305 kts
2026-05-05 17:49 24.53128 51.65060 15253 ft 304 kts
2026-05-05 17:49 24.55288 51.65399 14970 ft 302 kts
2026-05-05 17:49 24.57459 51.65744 14715 ft 300 kts
2026-05-05 17:49 24.59586 51.66083 14413 ft 299 kts
2026-05-05 17:50 24.61695 51.66423 14166 ft 296 kts
2026-05-05 17:50 24.63819 51.66770 13895 ft 294 kts
2026-05-05 17:50 24.65901 51.67108 13588 ft 294 kts
2026-05-05 17:50 24.68003 51.67450 13332 ft 292 kts
2026-05-05 17:51 24.70076 51.67784 13051 ft 290 kts
2026-05-05 17:51 24.72175 51.68123 12866 ft 285 kts
2026-05-05 17:51 24.74194 51.68453 12829 ft 274 kts
2026-05-05 17:51 24.76106 51.68767 12771 ft 263 kts
2026-05-05 17:52 24.77976 51.69081 12586 ft 257 kts
2026-05-05 17:52 24.79808 51.69392 12309 ft 257 kts
2026-05-05 17:52 24.81637 51.69707 12024 ft 256 kts
2026-05-05 17:52 24.83473 51.70025 11623 ft 259 kts
2026-05-05 17:53 24.85369 51.70354 11207 ft 261 kts
2026-05-05 17:53 24.87268 51.70297 10725 ft 263 kts 342°
2026-05-05 17:53 24.88878 51.69228 10272 ft 263 kts 313°
2026-05-05 17:53 24.89801 51.67372 9890 ft 268 kts 285°
2026-05-05 17:54 24.89792 51.65241 9363 ft 278 kts 258°
2026-05-05 17:54 24.88834 51.63285 8817 ft 287 kts 230°
2026-05-05 17:54 24.87077 51.61967 8284 ft 295 kts 202°
2026-05-05 17:54 24.84989 51.61650 7777 ft 300 kts 175°
2026-05-05 17:55 24.82988 51.62348 7261 ft 301 kts 148°
2026-05-05 17:55 24.81462 51.63902 6750 ft 298 kts 122°
2026-05-05 17:55 24.80703 51.65988 6244 ft 293 kts 95°
2026-05-05 17:55 24.80849 51.68194 5759 ft 286 kts 69°
2026-05-05 17:56 24.81842 51.70035 5279 ft 279 kts 43°
2026-05-05 17:56 24.83461 51.71167 4784 ft 275 kts 18°
2026-05-05 17:56 24.85368 51.71516 4300 ft 275 kts
2026-05-05 17:56 24.87283 51.71649 3829 ft 275 kts
2026-05-05 17:57 24.89089 51.71753 3374 ft 275 kts
2026-05-05 17:57 24.91040 51.71850 2880 ft 274 kts
2026-05-05 17:57 24.92961 51.71939 2398 ft 274 kts
2026-05-05 17:57 24.94865 51.72008 2232 ft 260 kts
2026-05-05 17:58 24.96621 51.71922 2194 ft 244 kts 347°
2026-05-05 17:58 24.98067 51.71022 2159 ft 233 kts 316°
2026-05-05 17:58 24.98804 51.69475 2108 ft 223 kts 282°
2026-05-05 17:58 24.98614 51.67785 2065 ft 211 kts 245°
2026-05-05 17:59 24.97580 51.66615 1980 ft 206 kts 203°
2026-05-05 17:59 24.96143 51.66443 1973 ft 205 kts 161°
2026-05-05 17:59 24.94941 51.67329 1972 ft 196 kts 119°
2026-05-05 17:59 24.94596 51.68718 1973 ft 184 kts 79°
2026-05-05 18:00 24.95139 51.69897 1963 ft 166 kts 36°
2026-05-05 18:00 24.96183 51.70349 1987 ft 160 kts 13°
2026-05-05 18:00 24.97269 51.70590 1988 ft 157 kts 12°
2026-05-05 18:00 24.98360 51.70764 1983 ft 156 kts
2026-05-05 18:01 24.99463 51.70925 1987 ft 157 kts
2026-05-05 18:01 25.00572 51.71058 1988 ft 157 kts
2026-05-05 18:01 25.01674 51.70873 1993 ft 158 kts 347°
2026-05-05 18:01 25.02769 51.70471 2001 ft 159 kts 343°
2026-05-05 18:02 25.03828 51.70024 1997 ft 159 kts 342°
2026-05-05 18:02 25.04900 51.69559 2004 ft 159 kts 341°
2026-05-05 18:02 25.05953 51.69098 1999 ft 159 kts 342°
2026-05-05 18:02 25.07025 51.68628 2002 ft 160 kts 341°
2026-05-05 18:03 25.08095 51.68159 2000 ft 160 kts 341°
2026-05-05 18:03 25.09154 51.67696 2002 ft 159 kts 342°
2026-05-05 18:03 25.10185 51.67247 2002 ft 159 kts 341°
2026-05-05 18:03 25.11224 51.66797 2003 ft 159 kts 342°
2026-05-05 18:04 25.12291 51.66333 2002 ft 160 kts 342°
2026-05-05 18:04 25.13355 51.65867 2011 ft 159 kts 342°
2026-05-05 18:04 25.14390 51.65412 2018 ft 158 kts 342°
2026-05-05 18:04 25.15374 51.64981 2004 ft 153 kts 342°
2026-05-05 18:05 25.16370 51.64549 1860 ft 158 kts 342°
2026-05-05 18:05 25.17393 51.64103 1664 ft 160 kts 342°
2026-05-05 18:05 25.18443 51.63643 1462 ft 160 kts 342°
2026-05-05 18:05 25.19450 51.63206 1244 ft 150 kts 343°
2026-05-05 18:06 25.20418 51.62799 965 ft 144 kts 342°
2026-05-05 18:06 25.21051 51.62517 766 ft 140 kts 341°
2026-05-05 18:06 25.22224 51.61939 547 ft 138 kts 336°
2026-05-05 18:06 25.23115 51.61519 449 ft 137 kts 341°
2026-05-05 18:07 25.24040 51.61147 367 ft 135 kts 343°
2026-05-05 18:07 25.24953 51.60768 213 ft 139 kts 340°
2026-05-05 18:07 25.25863 51.60379 70 ft 138 kts 341°
2026-05-05 18:07 25.26683 51.60037 25 ft 83 kts 338°
2026-05-05 18:08 25.26997 51.59822 28 ft 28 kts 307°
2026-05-05 18:08 25.27057 51.59725 28 ft 10 kts 275°
2026-05-05 18:08 25.27011 51.59680 28 ft 9 kts 180°
2026-05-05 18:08 25.26964 51.59689 27 ft 0 kts 161°